Weather History for KD57 - November, 2013

Change the Weather History Date:

Wednesday, November 20, 2013

  Actual Average (KDIK) Record (KDIK)
Temperature  
Mean Temperature 18 °F 27 °F  
Max Temperature 28 °F 37 °F 65 °F (1908)
Min Temperature 6 °F 17 °F -15 °F (1937)
Degree Days  
Heating Degree Days 47 38  
Month to date heating degree days 660  
Since 1 July heating degree days 1671  
Cooling Degree Days 0 0  
Month to date cooling degree days 0  
Year to date cooling degree days 419  
Moisture  
Dew Point 11 °F    
Average Humidity 75    
Maximum Humidity 93    
Minimum Humidity 59    
Precipitation  
Precipitation 0.00 in 0.02 in 0.35 in (1977)
Month to date precipitation 0.43  
Year to date precipitation 15.42  
Sea Level Pressure  
Sea Level Pressure 30.00 in    
Wind  
Wind Speed 14 mph (NNW)    
Max Wind Speed 24 mph    
Max Gust Speed 31 mph    
Visibility 8 miles    
Events Rain , Snow    
T = Trace of Precipitation, MM = Missing Value Source: NWS Daily Summary

Daily Weather History Graph

Daily Weather History Graph

Search for Another Location

Airport or City:

Trip Planner

Search our weather history database for the weather conditions in past years. The results will help you decide how hot, cold, wet, or windy it might be!

Date:

Astronomy

Nov. 20, 2013 Rise Set
Actual Time 6:57 AM MST 4:08 PM MST
Civil Twilight 6:24 AM MST 4:41 PM MST
Nautical Twilight 5:46 AM MST 5:18 PM MST
Astronomical Twilight 5:10 AM MST 5:54 PM MST
Moon 6:52 PM MST (11/20) 9:24 AM MST (11/20)
Length of Visible Light 10h 17m
Length of Day
9h 10m
Waning Gibbous, 91% of the Moon is Illuminated
Nov 20
Waning Gibbous
Nov 25
Last Quarter
Dec 2
New
Dec 9
First Quarter
Dec 17
Full

Hourly Weather History & Observations

Time (MST) Temp. Windchill Dew Point Humidity Pressure Visibility Wind Dir Wind Speed Gust Speed Precip Events Conditions
12:15 AM 28.4 °F 19.1 °F 26.6 °F 93% 29.66 in 9.0 mi North 10.4 mph 17.3 mph N/A   Clear
12:35 AM 28.4 °F 19.1 °F 24.8 °F 86% 29.68 in 7.0 mi North 10.4 mph - N/A   Partly Cloudy
12:55 AM 26.6 °F 17.5 °F 23.0 °F 86% 29.70 in 9.0 mi North 9.2 mph - N/A   Mostly Cloudy
1:15 AM 24.8 °F 14.0 °F 23.0 °F 93% 29.71 in 7.0 mi North 11.5 mph 18.4 mph N/A   Overcast
1:35 AM 24.8 °F 13.4 °F 23.0 °F 93% 29.73 in 7.0 mi North 12.7 mph - N/A   Overcast
1:55 AM 24.8 °F 13.4 °F 21.2 °F 86% 29.75 in 10.0 mi NNW 12.7 mph 21.9 mph N/A   Overcast
2:15 AM 24.8 °F 14.0 °F 21.2 °F 86% 29.77 in 10.0 mi NNW 11.5 mph - N/A   Overcast
2:35 AM 24.8 °F 14.0 °F 19.4 °F 80% 29.78 in 10.0 mi NNW 11.5 mph - N/A   Overcast
2:55 AM 23.0 °F 10.1 °F 19.4 °F 86% 29.78 in 9.0 mi NNW 15.0 mph - N/A   Overcast
3:15 AM 23.0 °F 9.2 °F 17.6 °F 80% 29.79 in 10.0 mi NNW 17.3 mph - N/A   Overcast
3:35 AM 23.0 °F 9.2 °F 17.6 °F 80% 29.80 in 10.0 mi NNW 17.3 mph 23.0 mph N/A   Overcast
3:55 AM 21.2 °F 7.3 °F 15.8 °F 80% 29.81 in 10.0 mi NNW 16.1 mph 21.9 mph N/A   Overcast
4:15 AM 21.2 °F 7.8 °F 15.8 °F 80% 29.82 in 10.0 mi NNW 15.0 mph 23.0 mph N/A   Overcast
4:35 AM 21.2 °F 8.3 °F 14.0 °F 74% 29.83 in 10.0 mi NNW 13.8 mph - N/A   Overcast
4:55 AM 19.4 °F 6.0 °F 14.0 °F 80% 29.85 in 10.0 mi NNW 13.8 mph - N/A   Overcast
5:15 AM 19.4 °F 6.6 °F 14.0 °F 80% 29.87 in 10.0 mi NNW 12.7 mph - N/A   Overcast
5:35 AM 19.4 °F 6.6 °F 14.0 °F 80% 29.87 in 10.0 mi NNW 12.7 mph - N/A   Overcast
5:55 AM 19.4 °F 6.6 °F 14.0 °F 80% 29.87 in 10.0 mi NNW 12.7 mph - N/A   Overcast
6:15 AM 19.4 °F 7.2 °F 14.0 °F 80% 29.87 in 10.0 mi NNW 11.5 mph - N/A   Overcast
6:35 AM 19.4 °F 6.6 °F 14.0 °F 80% 29.88 in 10.0 mi NNW 12.7 mph - N/A   Overcast
6:55 AM 19.4 °F 6.6 °F 12.2 °F 74% 29.89 in 10.0 mi NNW 12.7 mph - N/A   Overcast
7:15 AM 19.4 °F 7.2 °F 12.2 °F 74% 29.88 in 10.0 mi North 11.5 mph - N/A   Mostly Cloudy
7:35 AM 19.4 °F 6.6 °F 14.0 °F 80% 29.90 in 10.0 mi North 12.7 mph - N/A   Mostly Cloudy
7:55 AM 19.4 °F 6.6 °F 14.0 °F 80% 29.90 in 10.0 mi NNW 12.7 mph - N/A   Overcast
8:15 AM 21.2 °F 8.3 °F 14.0 °F 74% 29.92 in 10.0 mi NNW 13.8 mph - N/A   Overcast
8:35 AM 21.2 °F 9.5 °F 14.0 °F 74% 29.92 in 10.0 mi North 11.5 mph - N/A   Mostly Cloudy
8:55 AM 21.2 °F 7.8 °F 12.2 °F 68% 29.92 in 10.0 mi NNW 15.0 mph - N/A   Mostly Cloudy
9:15 AM 21.2 °F 9.5 °F 14.0 °F 74% 29.92 in 10.0 mi North 11.5 mph 17.3 mph N/A   Mostly Cloudy
9:35 AM 21.2 °F 7.8 °F 12.2 °F 68% 29.93 in 8.0 mi North 15.0 mph - N/A Snow Light Snow
9:55 AM 21.2 °F 8.9 °F 12.2 °F 68% 29.93 in 10.0 mi North 12.7 mph - N/A   Mostly Cloudy
10:15 AM 21.2 °F 8.9 °F 12.2 °F 68% 29.92 in 10.0 mi North 12.7 mph 19.6 mph N/A   Overcast
10:35 AM 23.0 °F 10.6 °F 10.4 °F 59% 29.92 in 10.0 mi North 13.8 mph - N/A   Overcast
10:55 AM 21.2 °F 9.5 °F 10.4 °F 63% 29.91 in 10.0 mi NNE 11.5 mph - N/A   Overcast
11:15 AM 23.0 °F 13.1 °F 12.2 °F 63% 29.92 in 8.0 mi NNE 9.2 mph - N/A   Overcast
11:35 AM 23.0 °F 13.1 °F 12.2 °F 63% 29.90 in 9.0 mi North 9.2 mph - N/A   Scattered Clouds
11:55 AM 23.0 °F 11.7 °F 12.2 °F 63% 29.90 in 8.0 mi North 11.5 mph - N/A   Partly Cloudy
12:15 PM 24.8 °F 12.9 °F 12.2 °F 59% 29.91 in 6.0 mi North 13.8 mph - N/A   Haze
12:35 PM 21.2 °F 8.3 °F 12.2 °F 68% 29.93 in 7.0 mi NNW 13.8 mph - N/A   Mostly Cloudy
12:55 PM 21.2 °F 8.3 °F 12.2 °F 68% 29.95 in 6.0 mi NNW 13.8 mph - N/A   Haze
1:15 PM 19.4 °F 5.0 °F 12.2 °F 74% 29.96 in 9.0 mi NNW 16.1 mph 21.9 mph N/A   Overcast
1:35 PM 19.4 °F 4.1 °F 10.4 °F 68% 29.97 in 10.0 mi North 18.4 mph - N/A   Overcast
1:55 PM 17.6 °F 1.7 °F 10.4 °F 73% 29.98 in 6.0 mi NNW 18.4 mph 24.2 mph N/A Snow Light Snow
2:15 PM 17.6 °F 2.7 °F 10.4 °F 73% 29.99 in 9.0 mi NNW 16.1 mph 24.2 mph N/A Snow Light Snow
2:35 PM 17.6 °F 1.7 °F 10.4 °F 73% 30.01 in 9.0 mi NNW 18.4 mph 27.6 mph N/A Snow Light Snow
2:55 PM 17.6 °F 0.9 °F 8.6 °F 68% 30.02 in 10.0 mi NNW 20.7 mph - N/A Snow Light Snow
3:15 PM 15.8 °F -1.9 °F 8.6 °F 73% 30.03 in 3.0 mi NNW 21.9 mph - N/A Snow Light Snow
3:35 PM 15.8 °F 0.3 °F 10.4 °F 79% 30.05 in 2.0 mi NNW 16.1 mph 24.2 mph N/A Snow Light Snow
3:55 PM 15.8 °F -0.6 °F 10.4 °F 79% 30.07 in 1.5 mi NW 18.4 mph - N/A Snow Light Snow
4:15 PM 15.8 °F 2.1 °F 10.4 °F 79% 30.08 in 2.5 mi NNW 12.7 mph 21.9 mph N/A Snow Light Snow
4:35 PM 14.0 °F -1.4 °F 8.6 °F 79% 30.10 in 5.0 mi NNW 15.0 mph 24.2 mph N/A Snow Light Snow
4:55 PM 14.0 °F -3.0 °F 6.8 °F 73% 30.12 in 4.0 mi NNW 18.4 mph 25.3 mph N/A Snow Light Snow
5:15 PM 14.0 °F -1.4 °F 6.8 °F 73% 30.14 in 3.0 mi NNW 15.0 mph 21.9 mph N/A Snow Light Snow
5:35 PM 12.2 °F -4.8 °F 6.8 °F 79% 30.16 in 2.0 mi NW 17.3 mph - N/A Snow Light Snow
5:55 PM 12.2 °F -5.8 °F 5.0 °F 73% 30.17 in 0.8 mi NW 19.6 mph 26.5 mph N/A Snow Light Snow
6:15 PM 12.2 °F -5.3 °F 5.0 °F 73% 30.18 in 7.0 mi NW 18.4 mph 24.2 mph N/A Snow Light Snow
6:35 PM 10.4 °F -8.2 °F 5.0 °F 79% 30.19 in 4.0 mi NW 19.6 mph - N/A Snow Light Snow
6:55 PM 10.4 °F -8.6 °F 5.0 °F 79% 30.21 in 2.0 mi NW 20.7 mph - N/A Snow Light Snow
7:15 PM 10.4 °F -8.2 °F 3.2 °F 73% 30.22 in 5.0 mi NW 19.6 mph - N/A Snow Light Snow
7:35 PM 10.4 °F -7.7 °F 3.2 °F 73% 30.23 in 5.0 mi NW 18.4 mph 24.2 mph N/A Rain Light Freezing Rain
7:55 PM 10.4 °F -8.2 °F 3.2 °F 73% 30.24 in 5.0 mi NW 19.6 mph - N/A Snow Light Snow
8:15 PM 10.4 °F -9.9 °F 3.2 °F 73% 30.25 in 5.0 mi NW 24.2 mph - N/A   Haze
8:35 PM 10.4 °F -9.1 °F 3.2 °F 73% 30.26 in 8.0 mi NW 21.9 mph 27.6 mph N/A   Overcast
8:55 PM 10.4 °F -7.7 °F 3.2 °F 73% 30.28 in 10.0 mi NW 18.4 mph 27.6 mph N/A   Overcast
9:15 PM 10.4 °F -9.9 °F 3.2 °F 73% 30.29 in 10.0 mi NW 24.2 mph 31.1 mph N/A   Overcast
9:35 PM 10.4 °F -9.5 °F 3.2 °F 73% 30.31 in 10.0 mi NW 23.0 mph 28.8 mph N/A   Overcast
9:55 PM 10.4 °F -9.5 °F 3.2 °F 73% 30.31 in 10.0 mi NW 23.0 mph 29.9 mph N/A   Overcast
10:15 PM 10.4 °F -9.1 °F 1.4 °F 67% 30.32 in 10.0 mi NW 21.9 mph 31.1 mph N/A   Overcast
10:35 PM 8.6 °F -11.9 °F 1.4 °F 73% 30.33 in 10.0 mi NW 23.0 mph 29.9 mph N/A   Overcast
10:55 PM 8.6 °F -11.4 °F 1.4 °F 73% 30.34 in 10.0 mi NW 21.9 mph 28.8 mph N/A   Overcast
11:15 PM 8.6 °F -11.9 °F -0.4 °F 67% 30.35 in 10.0 mi NNW 23.0 mph - N/A   Overcast
11:35 PM 8.6 °F -8.9 °F 1.4 °F 73% 30.36 in 10.0 mi NW 16.1 mph 24.2 mph N/A   Overcast
11:55 PM 6.8 °F -11.8 °F -0.4 °F 72% 30.36 in 10.0 mi NW 17.3 mph 26.5 mph N/A   Overcast